Weather in Yavlenka

Kazakhstan     54°20′47″N   68°27′29″E
temp.,
°C
wind,
m/s
gust,
m/s
humid.,
%
clouds,
%
prec.,
mm/h
press.,
hPa
HPBL,
m
22 october, fri
fri2200:00+1w81395100 1.8 1008675
03:00+1w71176100 0.3 1010776
06:00−1sw61282100 0.3 1011385
09:000sw71472100 0.0 1011708
12:00+3sw91365100 0.0 10101057
15:00+3sw91379100 0.0 10101155
18:00+2sw81396100 0.1 1011741
21:00+3sw71493100 0.0 1011583
23 october, sat
sat2300:00+4sw81687100 0.0 1011593
03:00+6sw101884100 0.6 1009768
06:00+6sw91774100 0.6 1009754
09:00+6wsw91768100 0.0 1009720
12:00+8wsw9156277 0.0 1011728
15:00+12wsw91457100 0.0 1012979
18:00+10wsw8146519 0.0 1013774
21:00+9wsw7157385 0.0 1015629
24 october, sun
sun2400:00+8wsw714795 0.0 1016451
03:00+7wsw6138786 0.0 1017368
06:00+6wsw5119220 0.0 1018275
09:00+6sw5109473 0.0 1019243
12:00+10sw697670 0.0 1018489
15:00+11sw5972100 0.0 1017528
18:00+12ssw71472100 0.0 1015723
21:00+11sw91840100 0.0 1014701
25 october, mon
mon2500:00+10sw91838100 0.0 1014613
03:00+9sw81643100 0.0 1013506
06:00+8wsw61351100 0.0 1014396
09:00+8wsw3755100 0.0 1016273
12:00+8sw2460100 0.0 1017195
15:00+9ssw2361100 0.0 1016280
18:00+9sse2257100 0.0 101533
21:00+9s3758100 0.0 1014161
26 october, tue
tue2600:00+9s61373100 0.3 1012453
03:00+8sse4872100 1.6 1010217
06:00+8s3660100 1.8 1008148
09:00+8wsw3563100 0.0 1007138
12:00+9wnw3868100 0.1 1007543
15:00+3nnw61195100 1.0 1010540
18:00+4n6976100 1.1 1012983
21:00+1n6107386 0.0 1015684